Weather reports worldwide

Advertisment
Wilkes-Barre/Scrant PA, United States of America (72513): temperature & dewpoint: 11.10.2018 00:00:00 - 17.10.2018 00:00:00 (EDT)Wilkes-Barre/Scrant PA, United States of America (72513): wind speed & gusts: 11.10.2018 00:00:00 - 17.10.2018 00:00:00 (EDT)Wilkes-Barre/Scrant PA, United States of America (72513): wind direction: 11.10.2018 00:00:00 - 17.10.2018 00:00:00 (EDT)Wilkes-Barre/Scrant PA, United States of America (72513): reduced air pressure: 11.10.2018 00:00:00 - 17.10.2018 00:00:00 (EDT)Wilkes-Barre/Scrant PA, United States of America (72513): visibility: 11.10.2018 00:00:00 - 17.10.2018 00:00:00 (EDT)Wilkes-Barre/Scrant PA, United States of America (72513): precipitation: 11.10.2018 00:00:00 - 17.10.2018 00:00:00 (EDT)
Date & Time tt [°C] td [°C] ff [km/h] ff [kn] fx [km/h] fx [kn] dd ppp [hPa] vv [km] rr [mm]
17.10.2018 00:00:00 5,6 2,8 8 4 - - SW 1017,4 16 -
16.10.2018 23:00:00 5,6 2,8 5 3 - - WSW 1017,4 16 0,0
16.10.2018 22:00:00 4,4 3,3 0 0 - - N 1017,6 16 -
16.10.2018 21:00:00 6,7 2,2 0 0 - - N 1017,4 16 -
16.10.2018 20:00:00 7,8 1,1 11 6 - - SW 1017,8 16 0,0
16.10.2018 19:00:00 8,3 0,6 13 7 - - SSW 1017,4 16 -
16.10.2018 18:00:00 9,4 0,6 15 8 - - SW 1017,6 16 -
16.10.2018 17:00:00 10,0 0,0 15 8 - - SW 1017,3 16 0,0
16.10.2018 16:00:00 10,6 0,0 18 10 - - SW 1017,8 16 -
16.10.2018 15:00:00 10,0 0,0 11 6 - - - 1018,4 16 -
16.10.2018 14:00:00 10,6 -0,6 15 8 - - SW 1018,9 16 0,0
16.10.2018 13:00:00 9,4 -1,1 11 6 - - W 1020,1 16 -
16.10.2018 12:00:00 7,8 -1,1 11 6 - - WNW 1021,4 16 -
16.10.2018 11:00:00 6,7 -1,1 13 7 - - WNW 1022,2 16 0,0
16.10.2018 10:00:00 6,7 -1,1 11 6 - - W 1022,8 16 -
16.10.2018 09:00:00 5,6 -0,6 15 8 - - WSW 1022,6 16 -
16.10.2018 08:00:00 3,3 0,6 5 3 - - SSW 1022,0 16 0,0
16.10.2018 07:00:00 4,4 -2,2 8 4 - - W 1021,3 16 -
16.10.2018 06:00:00 5,0 -1,1 8 4 - - WNW 1021,0 16 -
16.10.2018 05:00:00 5,0 -0,6 16 9 - - NNW 1020,7 16 0,0
16.10.2018 04:00:00 6,7 -0,6 21 11 - - NW 1019,5 16 -
16.10.2018 03:00:00 8,9 2,8 21 11 - - N 1018,6 16 -
16.10.2018 02:00:00 10,6 2,8 21 11 - - NW 1017,8 16 -
16.10.2018 01:00:00 11,7 3,9 22 12 - - NW 1017,0 16 -
16.10.2018 00:00:00 12,8 8,3 18 10 - - W 1015,8 16 -
15.10.2018 23:00:00 13,3 11,1 15 8 - - W 1014,9 16 0,0
15.10.2018 22:00:00 14,4 11,7 18 10 - - SW 1013,5 16 0,3
15.10.2018 21:00:00 15,6 14,4 13 7 - - SW 1012,5 15 0,0
15.10.2018 20:00:00 17,2 15,0 31 17 - - WSW 1011,3 16 0,0
15.10.2018 19:00:00 18,3 15,0 16 9 - - SW 1010,2 16 0,0
15.10.2018 18:00:00 18,3 14,4 22 12 - - SW 1010,1 16 0,0
15.10.2018 17:00:00 18,3 14,4 15 8 - - SW 1010,6 16 -
15.10.2018 16:00:00 17,2 14,4 11 6 - - SW 1011,8 15 0,0
15.10.2018 15:00:00 15,6 13,9 0 0 - - N 1012,9 11 -
15.10.2018 14:00:00 15,0 13,3 5 3 - - NW 1013,5 11 -
15.10.2018 13:00:00 15,6 13,3 11 6 - - SSW 1014,3 16 -
15.10.2018 12:00:00 13,9 12,2 9 5 - - - 1015,7 16 -
15.10.2018 11:00:00 13,3 11,7 13 7 - - SW 1016,3 16 -
15.10.2018 10:00:00 12,8 11,7 13 7 - - SW 1017,0 16 -
15.10.2018 09:00:00 12,2 11,1 13 7 - - SW 1017,3 16 0,0
15.10.2018 08:00:00 11,1 10,6 11 6 - - SSW 1017,3 15 0,0
15.10.2018 07:00:00 11,1 10,0 9 5 - - W 1018,0 16 0,0
15.10.2018 06:00:00 10,0 9,4 5 3 - - WSW 1018,5 11 0,3
15.10.2018 05:00:00 8,9 8,3 0 0 - - N 1019,0 8 0,0
15.10.2018 04:00:00 10,0 8,3 5 3 - - NNE 1019,4 13 0,0
15.10.2018 03:00:00 8,3 6,7 5 3 - - NNE 1020,3 13 -
15.10.2018 02:00:00 8,3 7,2 5 3 - - NNE 1021,1 13 0,0
15.10.2018 01:00:00 6,1 6,1 5 3 - - E 1021,7 10 -
15.10.2018 00:00:00 6,1 5,6 5 3 - - E 1022,2 13 -
14.10.2018 23:00:00 7,2 5,6 0 0 - - N 1022,8 15 0,0
14.10.2018 22:00:00 6,1 5,6 0 0 - - N 1023,0 15 -
14.10.2018 21:00:00 7,8 5,6 5 3 - - WSW 1022,9 16 -
14.10.2018 20:00:00 8,3 5,0 5 3 - - - 1022,4 16 0,0
14.10.2018 19:00:00 8,3 5,6 0 0 - - N 1022,2 16 -
14.10.2018 18:00:00 10,6 5,0 9 5 - - S 1021,8 16 -
14.10.2018 17:00:00 11,7 4,4 15 8 - - SW 1022,2 16 0,0
14.10.2018 16:00:00 11,7 4,4 11 6 - - SW 1022,3 16 -
14.10.2018 15:00:00 11,7 5,0 9 5 - - SSW 1022,7 16 -
14.10.2018 14:00:00 11,7 5,0 8 4 - - NW 1022,8 16 -
14.10.2018 13:00:00 11,1 5,6 9 5 - - W 1023,6 16 -
14.10.2018 12:00:00 10,0 5,6 0 0 - - N 1024,2 16 -
14.10.2018 11:00:00 8,3 5,0 0 0 - - N 1024,5 16 -
14.10.2018 10:00:00 7,2 5,0 5 3 - - WSW 1024,4 16 -
14.10.2018 09:00:00 6,1 4,4 0 0 - - N 1023,7 16 0,0
14.10.2018 08:00:00 5,6 4,4 0 0 - - N 1022,7 15 0,0
14.10.2018 07:00:00 5,0 3,9 0 0 - - N 1022,5 16 -
14.10.2018 06:00:00 5,0 3,9 5 3 - - SW 1022,4 16 -
14.10.2018 05:00:00 3,9 3,3 0 0 - - N 1021,5 16 0,0
14.10.2018 04:00:00 5,0 3,9 8 4 - - WSW 1021,3 16 -
14.10.2018 03:00:00 3,9 3,3 0 0 - - N 1021,2 16 -
14.10.2018 02:00:00 3,3 3,3 5 3 - - S 1020,8 16 0,0
14.10.2018 01:00:00 3,9 3,3 5 3 - - SE 1020,2 16 -
14.10.2018 00:00:00 3,9 3,3 0 0 - - N 1019,7 16 -
13.10.2018 23:00:00 4,4 3,9 5 3 - - SE 1018,7 16 0,0
13.10.2018 22:00:00 5,0 4,4 0 0 - - N 1018,4 16 -
13.10.2018 21:00:00 5,6 5,0 5 3 - - E 1017,7 16 -
13.10.2018 20:00:00 6,1 5,0 0 0 - - N 1017,1 16 0,0
13.10.2018 19:00:00 8,3 3,3 8 4 - - N 1015,4 16 -
13.10.2018 18:00:00 10,6 2,8 15 8 - - NW 1014,7 16 -
13.10.2018 17:00:00 11,7 2,8 21 11 - - NNW 1013,8 16 0,0
13.10.2018 16:00:00 11,7 3,9 16 9 - - NW 1013,5 16 -
13.10.2018 15:00:00 10,6 4,4 22 12 - - NW 1013,1 16 -
13.10.2018 14:00:00 10,6 5,0 11 6 - - WNW 1012,6 16 -
13.10.2018 13:00:00 9,4 5,6 15 8 - - N 1012,7 16 -
13.10.2018 12:00:00 8,3 6,1 5 3 - - W 1012,5 16 0,0
13.10.2018 11:00:00 7,2 5,6 5 3 - - W 1012,0 16 0,3
13.10.2018 10:00:00 6,1 5,6 8 4 - - SW 1011,8 11 0,5
13.10.2018 09:00:00 6,1 5,0 15 8 - - SW 1011,3 11 1,3
13.10.2018 08:00:00 6,1 5,0 9 5 - - WSW 1010,4 10 0,3
13.10.2018 07:00:00 6,1 5,0 13 7 - - SW 1009,9 8 0,5
13.10.2018 06:00:00 7,2 5,6 0 0 - - N 1009,3 6 1,5
13.10.2018 05:00:00 7,8 6,1 5 3 - - SSW 1008,5 11 0,0
13.10.2018 04:00:00 8,3 4,4 8 4 - - NW 1008,2 13 0,0
13.10.2018 03:00:00 8,3 4,4 5 3 - - SW 1008,2 16 -
13.10.2018 02:00:00 8,9 2,8 0 0 - - N 1008,5 16 0,0
13.10.2018 01:00:00 8,9 2,2 0 0 - - N 1008,4 16 -
13.10.2018 00:00:00 8,9 3,3 8 4 - - W 1009,2 16 -
12.10.2018 23:00:00 8,9 2,8 9 5 - - NNW 1009,3 16 0,0
12.10.2018 22:00:00 9,4 3,3 9 5 - - NW 1009,6 16 -
12.10.2018 21:00:00 9,4 2,8 11 6 - - NNW 1008,8 16 -
12.10.2018 20:00:00 10,0 2,8 11 6 - - N 1008,4 16 0,0
12.10.2018 19:00:00 10,6 2,8 9 5 - - N 1008,2 16 -
12.10.2018 18:00:00 11,1 2,2 21 11 - - WNW 1007,7 16 -
12.10.2018 17:00:00 11,7 2,2 18 10 - - NNW 1007,2 16 0,0
12.10.2018 16:00:00 13,3 2,8 21 11 - - WNW 1007,1 16 -
12.10.2018 15:00:00 12,2 2,2 16 9 - - NNW 1007,0 16 -
12.10.2018 14:00:00 12,8 3,3 11 6 - - - 1007,5 16 0,0
12.10.2018 13:00:00 12,2 2,8 24 13 52 28 NW 1007,4 16 -
12.10.2018 12:00:00 11,1 2,2 35 19 50 27 NNW 1008,3 16 -
12.10.2018 11:00:00 10,6 2,2 29 16 50 27 NNW 1007,7 16 0,0
12.10.2018 10:00:00 10,6 2,8 24 13 50 27 NW 1007,3 16 -
12.10.2018 09:00:00 10,0 2,8 24 13 55 30 NW 1007,2 16 -
12.10.2018 08:00:00 10,6 3,9 21 11 - - NNW 1006,4 16 0,0
12.10.2018 07:00:00 11,1 3,9 26 14 57 31 N 1005,4 16 -
12.10.2018 06:00:00 11,7 6,1 18 10 - - N 1004,9 16 -
12.10.2018 05:00:00 12,8 7,2 18 10 - - N 1004,3 16 0,0
12.10.2018 04:00:00 13,9 10,0 13 7 - - N 1002,8 16 -
12.10.2018 03:00:00 13,9 10,0 15 8 - - NNW 1003,0 16 -
12.10.2018 02:00:00 14,4 10,0 16 9 - - NNE 1003,2 16 -
12.10.2018 01:00:00 16,1 12,8 28 15 - - NNE 1002,9 16 -
12.10.2018 00:00:00 16,7 14,4 18 10 - - NNE 1002,7 16 -
11.10.2018 23:00:00 19,4 17,2 11 6 - - NNE 1002,7 16 -
11.10.2018 22:00:00 20,0 18,3 8 4 - - NE 1003,0 16 -
11.10.2018 21:00:00 20,6 20,0 0 0 - - N 1002,4 16 0,3
11.10.2018 20:00:00 21,1 20,6 9 5 - - SW 1001,8 8 0,3
11.10.2018 19:00:00 20,6 20,6 8 4 - - WSW 1001,9 3,2 1,3
11.10.2018 18:00:00 21,1 20,6 5 3 - - SSW 1001,7 8 0,0
11.10.2018 17:00:00 21,7 20,6 0 0 - - N 1001,9 6 0,0
11.10.2018 16:00:00 21,1 20,6 8 4 - - S 1002,8 11 1,3
11.10.2018 15:00:00 21,1 20,6 0 0 - - N 1002,7 6 0,3
11.10.2018 14:00:00 21,1 20,0 0 0 - - N 1003,3 16 0,3
11.10.2018 13:00:00 20,6 20,0 0 0 - - N 1004,3 10 0,3
11.10.2018 12:00:00 20,0 19,4 5 3 - - E 1004,8 4,8 8,1
11.10.2018 11:00:00 18,9 18,3 5 3 - - E 1005,7 4,8 5,6
11.10.2018 10:00:00 19,4 19,4 8 4 - - N 1005,7 0,8 8,1
11.10.2018 09:00:00 22,2 20,0 5 3 - - SSW 1006,4 8 0,0
11.10.2018 08:00:00 22,2 19,4 8 4 - - - 1007,0 13 0,0
11.10.2018 07:00:00 22,2 19,4 8 4 - - S 1007,2 15 -
11.10.2018 06:00:00 22,2 19,4 8 4 - - S 1007,6 15 -
11.10.2018 05:00:00 22,8 19,4 13 7 - - SSW 1008,2 16 0,0
11.10.2018 04:00:00 22,2 19,4 15 8 - - S 1008,5 16 -
11.10.2018 03:00:00 22,2 18,9 9 5 - - SSW 1009,3 16 -
11.10.2018 02:00:00 22,2 18,9 8 4 - - SSW 1010,1 16 0,0
11.10.2018 01:00:00 22,2 18,9 9 5 - - SW 1010,9 16 -
11.10.2018 00:00:00 22,2 18,9 8 4 - - - 1011,5 16 -

tt = temperature
td = dewpoint
ff = wind speed
fx = gusts
dd = wind direction
ppp = reduced air pressure
vv = visibility
rr = precipitation

Next stations